Content
SEND FEEDBACK

Daily
Averages
Monthly
Summary
Australia

DARWIN, NORTHERN TERRITORY


Home > Oceania > Australia > Northern Territory
Elevation: 102 feet     Latitude: 12 26S     Longitude: 130 53E

WEATHER
 
SELECT A DAY
Number of Records: 287,606;   Date Range: 7/1/96 - 7/9/14
 
SHARE

PRINT THIS DATA

[ ← Previous Day ]
WEATHER ALMANAC - FEBRUARY 13, 2013
[ Next Day → ]
[ °C ]   °F
Weather ElementAverageHighLow
Temperature81.5 °F89.6 °F (1:00 pm)75.2 °F (4:00 am)
Dewpoint75.9 °F79 °F (3:30 pm)73.4 °F (11:00 am)
Humidity82.9 %100 % (4:00 am)55 % (12:30 pm)
Barometer29.74 in29.80 in (9:30 am)29.65 in (5:00 pm)
Wind Speed7.3 mph12.7 mph (6:00 pm)
Weather ElementAverage
Visibility6.5 mi
Wind DirectionSSW (197.3 °)

Weather ElementTotal
Precipitation---
Cooling Degree Days17.4 (Base 65)
Growing Degree Days32.4 (Base 50)
Averaged from 70 records on February 13, 2013
WEATHER CONDITIONS BREAKOUT
WIND DIRECTION BREAKOUT
WEATHER BY HOUR - FEBRUARY 13, 2013
[ °C ]   °F
Local TimeTemperatureDewpointHumidityBarometerVisibilityWind DirectionWind SpeedGust SpeedPrecipitationEventsConditions
12:00 AM78.8 °F75.2 °F89 %29.77 inSouth (190°)6.9 mphClear
12:30 AM79.0 °F75.0 °F85 %29.79 inSouth (190°)5.8 mph
12:30 AM78.8 °F75.2 °F89 %29.77 inSouth (190°)5.8 mphClear
1:00 AM78.8 °F75.2 °F89 %29.77 inESE (110°)4.6 mphClear
1:30 AM77.0 °F75.2 °F94 %29.77 inESE (120°)6.9 mphClear
2:00 AM77.0 °F75.2 °F94 %29.77 inEast (100°)5.8 mphClear
2:30 AM77.0 °F75.2 °F94 %29.77 inSE (130°)5.8 mphClear
3:00 AM77.0 °F75.2 °F94 %29.74 inESE (120°)4.6 mphClear
3:00 AM76.0 °F75.0 °F97 %29.75 in19.0 miESE (120°)4.6 mphPartly Cloudy
3:30 AM76.0 °F75.0 °F97 %29.75 inESE (120°)5.8 mph
3:30 AM77.0 °F75.2 °F94 %29.74 inESE (120°)5.8 mphClear
4:00 AM75.2 °F75.2 °F100 %29.74 in6.2 miEast (80°)5.8 mphScattered Clouds
4:30 AM75.2 °F75.2 °F100 %29.74 in6.2 miESE (120°)4.6 mphScattered Clouds
5:09 AM75.2 °F75.2 °F100 %29.74 in6.2 miESE (110°)5.8 mphScattered Clouds
5:13 AM75.2 °F75.2 °F100 %29.74 in2.5 miEast (100°)6.9 mphFogFog
5:16 AM75.2 °F75.2 °F100 %29.74 in0.9 miEast (100°)8.1 mphFogFog
5:19 AM75.2 °F75.2 °F100 %29.74 in0.5 miEast (90°)8.1 mphFogFog
5:30 AM75.2 °F75.2 °F100 %29.74 in0.3 miEast (100°)6.9 mphFogFog
6:00 AM76.0 °F75.0 °F97 %29.75 in0.0 miSE (130°)5.8 mphFogHeavy Fog
6:00 AM75.2 °F75.2 °F100 %29.74 in0.5 miSE (130°)5.8 mphFogFog
6:30 AM76.0 °F75.0 °F97 %29.75 inEast (100°)8.1 mph
6:30 AM75.2 °F75.2 °F100 %29.74 in0.5 miEast (100°)8.1 mphFogFog
6:39 AM75.2 °F75.2 °F100 %29.74 in0.2 miEast (90°)8.1 mphFogFog
7:00 AM75.2 °F75.2 °F100 %29.77 in0.5 miESE (110°)5.8 mphFogFog
7:28 AM77.0 °F75.2 °F94 %29.77 in1.2 miSSE (160°)6.9 mphMostly Cloudy
7:30 AM77.0 °F75.2 °F94 %29.77 in6.2 miSSE (150°)6.9 mphFogMostly Cloudy
7:39 AM77.0 °F75.2 °F94 %29.77 in6.2 miSSE (160°)5.8 mphFogScattered Clouds
8:00 AM78.8 °F77.0 °F94 %29.77 in6.2 miESE (110°)5.8 mphScattered Clouds
8:30 AM78.8 °F75.2 °F89 %29.77 in6.2 miESE (110°)5.8 mphScattered Clouds
9:00 AM81.0 °F76.0 °F80 %29.78 in19.0 miESE (110°)6.9 mphPartly Cloudy
9:00 AM80.6 °F75.2 °F84 %29.77 in6.2 miESE (110°)6.9 mphScattered Clouds
9:30 AM81.0 °F75.0 °F77 %29.80 inESE (120°)8.1 mph
9:30 AM80.6 °F75.2 °F84 %29.80 in6.2 miESE (120°)8.1 mphScattered Clouds
10:00 AM84.2 °F75.2 °F74 %29.80 in6.2 miSE (140°)5.8 mphScattered Clouds
10:30 AM86.0 °F75.2 °F70 %29.80 in6.2 miSSE (150°)5.8 mphScattered Clouds
11:00 AM86.0 °F73.4 °F66 %29.80 in6.2 miSSE (150°)4.6 mphScattered Clouds
11:30 AM86.0 °F75.2 °F70 %29.77 in6.2 miSouth (170°)5.8 mphScattered Clouds
12:00 PM87.0 °F75.0 °F60 %29.77 in19.0 miSE (130°)5.8 mphPartly Cloudy
12:00 PM87.8 °F75.2 °F66 %29.77 in6.2 miSE (130°)5.8 mphScattered Clouds
12:30 PM89.0 °F75.0 °F55 %29.76 inEast (80°)3.5 mph
12:30 PM87.8 °F75.2 °F66 %29.74 in6.2 miEast (80°)3.5 mphScattered Clouds
1:00 PM89.6 °F75.2 °F62 %29.74 in6.2 miNNW (340°)10.4 mphMostly Cloudy
1:30 PM87.8 °F77.0 °F70 %29.71 in6.2 miWNW (300°)11.5 mphMostly Cloudy
2:00 PM87.8 °F77.0 °F70 %29.71 in6.2 miNW (310°)10.4 mphMostly Cloudy
2:30 PM87.8 °F77.0 °F70 %29.68 in6.2 miNW (320°)8.1 mphMostly Cloudy
3:00 PM89.0 °F78.0 °F63 %29.70 in19.0 miNW (310°)9.2 mphPartly Cloudy
3:00 PM89.6 °F78.8 °F70 %29.68 in6.2 miNW (310°)9.2 mphMostly Cloudy
3:29 PM87.8 °F77.0 °F70 %29.68 in3.1 miWNW (290°)10.4 mphRainRain Showers
3:30 PM86.0 °F79.0 °F75 %29.69 inWNW (300°)10.4 mph
3:30 PM86.0 °F78.8 °F79 %29.68 in3.7 miWNW (300°)10.4 mphRainRain Showers
4:00 PM82.4 °F75.2 °F79 %29.68 in6.2 miWest (260°)8.1 mphMostly Cloudy
4:30 PM86.0 °F78.8 °F79 %29.68 in6.2 miNW (320°)9.2 mphMostly Cloudy
5:00 PM86.0 °F77.0 °F74 %29.65 in6.2 miNNW (340°)10.4 mphMostly Cloudy
5:30 PM86.0 °F77.0 °F74 %29.68 in6.2 miNNW (340°)11.5 mphMostly Cloudy
6:00 PM86.0 °F77.0 °F67 %29.68 in19.0 miNW (320°)12.7 mphPartly Cloudy
6:00 PM86.0 °F77.0 °F74 %29.68 in6.2 miNW (320°)12.7 mphMostly Cloudy
6:30 PM85.0 °F76.0 °F67 %29.68 inNW (320°)10.4 mph
6:30 PM86.0 °F75.2 °F70 %29.68 in6.2 miNW (320°)10.4 mphMostly Cloudy
7:00 PM84.2 °F75.2 °F74 %29.68 in6.2 miNNW (330°)10.4 mphMostly Cloudy
7:30 PM84.2 °F75.2 °F74 %29.68 in6.2 miNW (320°)10.4 mphMostly Cloudy
8:00 PM84.2 °F75.2 °F74 %29.68 in6.2 miNW (320°)9.2 mphMostly Cloudy
8:30 PM84.2 °F77.0 °F79 %29.71 in6.2 miNW (310°)8.1 mphMostly Cloudy
9:00 PM82.4 °F77.0 °F84 %29.71 in6.2 miWest (280°)6.9 mphMostly Cloudy
9:00 PM83.0 °F77.0 °F76 %29.73 in19.0 miWest (280°)6.9 mphScattered Clouds
9:30 PM83.0 °F76.0 °F75 %29.74 inWNW (290°)4.6 mph
9:30 PM82.4 °F77.0 °F84 %29.74 in6.2 miWNW (290°)4.6 mphMostly Cloudy
10:00 PM82.4 °F75.2 °F79 %29.74 in6.2 miWest (260°)5.8 mphMostly Cloudy
10:30 PM82.4 °F77.0 °F84 %29.74 in6.2 miWSW (240°)5.8 mphMostly Cloudy
11:00 PM82.4 °F78.8 °F89 %29.74 in6.2 miWest (260°)5.8 mphMostly Cloudy
11:30 PM80.6 °F78.8 °F94 %29.74 inWest (260°)4.6 mphClear
Hourly data recorded from YPDN, located miles away from Darwin, Northern Territory







STORIES FROM OUR PARTNERS